Overview Statistics Trail Chart Weather Telemetry Raw packets
 

This is the latest recevied weather packets stored in our database for station/object WW5JC. If no packets are shown the sender has not sent any weather packets the latest 10 day(s).

<< 74 75 76 77 78 79 80 >>
Time Temp. Humidity Pressure Rain* Wind** Luminosity Snow
1788095021 23.33° C 82% 1018.9 hPa 0 mm - 62 W/m² -
1788094719 23.33° C 82% 1018.9 hPa 0 mm - 57 W/m² -
1788094416 23.33° C 82% 1018.8 hPa 0 mm - 49 W/m² -
1788094113 22.78° C 82% 1019 hPa 0 mm - 45 W/m² -
1788093808 22.78° C 82% 1018.8 hPa 0 mm - 46 W/m² -
1788093505 22.22° C 84% 1019 hPa 0 mm - 41 W/m² -
1788093201 22.22° C 85% 1019 hPa 0 mm - 31 W/m² -
1788092898 22.22° C 84% 1018.6 hPa 0 mm - 25 W/m² -
1788092593 22.22° C 83% 1018.7 hPa 0 mm - 20 W/m² -
1788092289 22.22° C 83% 1018.6 hPa 0 mm - 15 W/m² -
1788091988 22.22° C 83% 1018.5 hPa 0 mm - 12 W/m² -
1788091683 21.67° C 84% 1018.3 hPa 0 mm - 9 W/m² -
1788091379 21.67° C 84% 1018.4 hPa 0 mm - 6 W/m² -
1788091075 21.67° C 83% 1018.3 hPa 0 mm - 4 W/m² -
1788090771 21.67° C 84% 1018.1 hPa 0 mm - 2 W/m² -
1788090467 21.67° C 84% 1018.2 hPa 0 mm - 1 W/m² -
1788090162 21.67° C 83% 1018.1 hPa 0 mm - 0 W/m² -
1788089857 21.67° C 83% 1017.9 hPa 0 mm - 0 W/m² -
1788089551 22.22° C 82% 1017.9 hPa 0 mm - 0 W/m² -
1788089252 22.22° C 82% 1017.9 hPa 0 mm - 0 W/m² -
1788088944 22.22° C 82% 1017.9 hPa 0 mm - 0 W/m² -
1788088640 22.22° C 81% 1017.7 hPa 0 mm - 0 W/m² -
1788088335 22.22° C 82% 1017.8 hPa 0 mm - 0 W/m² -
1788088035 22.22° C 81% 1017.6 hPa 0 mm - 0 W/m² -
1788087732 22.22° C 81% 1017.8 hPa 0 mm - 0 W/m² -

* Rain latest hour (hover to see other rain measurements)
** Current wind speed in m/s (hover to see current wind gust speed)